Location: Marstown
(39.5056°N, 77.0820°W)
Time: 16:12:01
(UTC-04:00)

Envisat - Visible Passes

Search period start: 20 August 2019 00:00
Search period end: 30 August 2019 00:00
Orbit: 764 x 766 km, 98.1° (Epoch: 20 August)

Date Brightness Start Highest point End Pass type
(mag) Time Alt. Az. Time Alt. Az. Time Alt. Az.
21 Aug 5.8 20:38:51 10° SW 20:42:10 17° W 20:45:30 10° NW visible
24 Aug 5.7 20:26:55 10° SW 20:30:49 22° W 20:34:44 10° NW visible
26 Aug 6.1 20:54:38 10° WSW 20:56:36 12° W 20:58:33 10° WNW visible
27 Aug 5.3 20:15:09 10° SSW 20:19:29 28° W 20:23:50 10° NW visible
29 Aug 5.9 20:42:12 10° SW 20:45:13 16° W 20:48:15 10° NW visible
